This is the latest recevied weather packets stored in our database for station/object KG5TTF. If no packets are shown the sender has not sent any weather packets the latest 10 day(s).
| Time | Temp. | Humidity | Pressure | Rain* | Wind** | Luminosity | Snow |
|---|---|---|---|---|---|---|---|
| 1777307764 | 1.67° C | 98% | 1016.6 hPa | 0 mm | - | 250 W/m² | - |
| 1777307461 | 1.67° C | 98% | 1016.6 hPa | 0 mm | - | 263 W/m² | - |
| 1777307158 | 1.67° C | 98% | 1016.6 hPa | 0 mm | - | 220 W/m² | - |
| 1777306855 | 1.67° C | 98% | 1016.6 hPa | 0 mm | - | 264 W/m² | - |
| 1777306552 | 1.67° C | 98% | 1016.9 hPa | 0 mm | - | 331 W/m² | - |
| 1777306247 | 1.67° C | 98% | 1016.8 hPa | 0 mm | - | 228 W/m² | - |
| 1777305942 | 1.67° C | 98% | 1016.5 hPa | 0 mm | - | 163 W/m² | - |
| 1777305639 | 1.11° C | 98% | 1016.5 hPa | 0 mm | - | 182 W/m² | - |
| 1777305335 | 1.11° C | 98% | 1016.5 hPa | 0 mm | - | 142 W/m² | - |
| 1777305035 | 1.11° C | 98% | 1016.6 hPa | 0 mm | - | 146 W/m² | - |
| 1777304735 | 1.11° C | 98% | 1016.3 hPa | 0 mm | - | 154 W/m² | - |
| 1777304432 | 1.11° C | 98% | 1016.4 hPa | 0 mm | - | 129 W/m² | - |
| 1777304130 | 1.67° C | 98% | 1016.3 hPa | 0 mm | - | 126 W/m² | - |
| 1777303826 | 1.67° C | 97% | 1016 hPa | 0 mm | - | 130 W/m² | - |
| 1777303524 | 1.67° C | 97% | 1015.9 hPa | 0 mm | - | 119 W/m² | - |
| 1777303221 | 1.67° C | 97% | 1016 hPa | 0 mm | - | 103 W/m² | - |
| 1777302920 | 1.67° C | 97% | 1016 hPa | 0 mm | - | 94 W/m² | - |
| 1777302615 | 1.67° C | 97% | 1015.8 hPa | 0 mm | - | 97 W/m² | - |
| 1777302314 | 1.67° C | 97% | 1015.7 hPa | 0 mm | - | 80 W/m² | - |
| 1777302011 | 1.67° C | 97% | 1015.7 hPa | 0 mm | - | 75 W/m² | - |
| 1777301710 | 2.22° C | 97% | 1015.7 hPa | 0 mm | - | 70 W/m² | - |
| 1777301406 | 2.22° C | 97% | 1015.4 hPa | 0 mm | - | 82 W/m² | - |
| 1777301102 | 2.22° C | 97% | 1015.2 hPa | 0 mm | - | 96 W/m² | - |
| 1777300800 | 2.22° C | 96% | 1015.2 hPa | 0 mm | - | 52 W/m² | - |
| 1777300498 | 2.22° C | 96% | 1015.2 hPa | 0 mm | - | 61 W/m² | - |
* Rain latest hour (hover to see other rain measurements)
** Current wind speed in m/s (hover to see current wind gust speed)